Time,TemperatureF,DewpointF,PressureIn,WindDirection,WindDirectionDegrees,WindSpeedMPH,WindSpeedGustMPH,Humidity,HourlyPrecipIn,Conditions,Clouds,dailyrainin,SoftwareType,DateUTC
2013-08-29 00:00:00,68.8,67.0,29.97,ENE,71,0.0,0.0,94,0.00,,,0.00,Wunderground v.1.15,2013-08-29 05:00:00,
2013-08-29 00:05:00,68.8,67.3,29.98,ENE,71,0.0,0.0,95,0.00,,,0.00,Wunderground v.1.15,2013-08-29 05:05:00,
2013-08-29 00:10:00,68.7,67.2,29.97,ENE,71,0.0,0.0,95,0.00,,,0.00,Wunderground v.1.15,2013-08-29 05:10:00,
2013-08-29 00:15:00,68.7,67.2,29.98,East,92,0.0,0.0,95,0.00,,,0.00,Wunderground v.1.15,2013-08-29 05:15:00,
2013-08-29 00:20:00,68.6,67.1,29.98,East,92,0.0,1.0,95,0.00,,,0.00,Wunderground v.1.15,2013-08-29 05:20:00,
2013-08-29 00:25:00,68.6,67.1,29.98,East,92,0.0,1.0,95,0.00,,,0.00,Wunderground v.1.15,2013-08-29 05:25:00,
2013-08-29 00:30:00,68.6,67.1,29.98,East,92,0.0,0.0,95,0.00,,,0.00,Wunderground v.1.15,2013-08-29 05:30:00,
2013-08-29 00:35:00,68.5,67.0,29.98,East,92,0.0,0.0,95,0.00,,,0.00,Wunderground v.1.15,2013-08-29 05:35:00,
2013-08-29 00:40:00,68.4,66.9,29.98,East,84,0.0,1.0,95,0.00,,,0.00,Wunderground v.1.15,2013-08-29 05:40:00,
2013-08-29 00:45:00,68.3,66.8,29.98,East,84,0.0,1.0,95,0.00,,,0.00,Wunderground v.1.15,2013-08-29 05:45:00,
2013-08-29 00:55:00,68.0,66.5,29.98,East,84,0.0,0.0,95,0.00,,,0.00,Wunderground v.1.15,2013-08-29 05:55:00,
2013-08-29 01:00:00,67.8,66.3,29.98,East,84,0.0,0.0,95,0.00,,,0.00,Wunderground v.1.15,2013-08-29 06:00:00,
2013-08-29 01:05:00,67.7,66.2,29.98,East,90,0.0,0.0,95,0.00,,,0.00,Wunderground v.1.15,2013-08-29 06:05:00,
2013-08-29 01:10:00,67.6,66.1,29.98,East,90,0.0,0.0,95,0.00,,,0.00,Wunderground v.1.15,2013-08-29 06:10:00,
2013-08-29 01:15:00,67.5,66.3,29.98,East,90,0.0,0.0,96,0.00,,,0.00,Wunderground v.1.15,2013-08-29 06:15:00,
2013-08-29 01:20:00,67.4,65.9,29.98,East,90,0.0,1.0,95,0.00,,,0.00,Wunderground v.1.15,2013-08-29 06:20:00,
2013-08-29 01:25:00,67.5,66.3,29.98,East,94,1.0,1.0,96,0.00,,,0.00,Wunderground v.1.15,2013-08-29 06:25:00,
2013-08-29 01:30:00,67.4,66.2,29.98,East,85,1.0,1.0,96,0.00,,,0.00,Wunderground v.1.15,2013-08-29 06:30:00,
2013-08-29 01:35:00,67.3,66.1,29.98,ESE,103,1.0,1.0,96,0.00,,,0.00,Wunderground v.1.15,2013-08-29 06:35:00,
2013-08-29 01:40:00,67.2,66.0,29.98,East,91,1.0,1.0,96,0.00,,,0.00,Wunderground v.1.15,2013-08-29 06:40:00,
2013-08-29 01:45:00,67.1,65.9,29.98,East,100,1.0,2.0,96,0.00,,,0.00,Wunderground v.1.15,2013-08-29 06:45:00,
2013-08-29 01:50:00,66.9,65.7,29.98,East,92,2.0,2.0,96,0.00,,,0.00,Wunderground v.1.15,2013-08-29 06:50:00,
2013-08-29 01:55:00,66.8,65.6,29.98,East,95,1.0,2.0,96,0.00,,,0.00,Wunderground v.1.15,2013-08-29 06:55:00,
2013-08-29 02:00:00,66.7,65.5,29.98,ESE,105,1.0,1.0,96,0.00,,,0.00,Wunderground v.1.15,2013-08-29 07:00:00,
2013-08-29 02:05:00,66.7,65.5,29.98,East,98,1.0,1.0,96,0.00,,,0.00,Wunderground v.1.15,2013-08-29 07:05:00,
2013-08-29 02:10:00,66.5,65.6,29.98,East,98,1.0,1.0,97,0.00,,,0.00,Wunderground v.1.15,2013-08-29 07:10:00,
2013-08-29 02:15:00,66.5,65.6,29.98,ESE,106,0.0,1.0,97,0.00,,,0.00,Wunderground v.1.15,2013-08-29 07:15:00,
2013-08-29 02:20:00,66.4,65.5,29.98,East,101,1.0,1.0,97,0.00,,,0.00,Wunderground v.1.15,2013-08-29 07:20:00,
2013-08-29 02:25:00,66.3,65.4,29.98,East,101,0.0,1.0,97,0.00,,,0.00,Wunderground v.1.15,2013-08-29 07:25:00,
2013-08-29 02:30:00,66.3,65.4,29.98,East,92,0.0,0.0,97,0.00,,,0.00,Wunderground v.1.15,2013-08-29 07:30:00,
2013-08-29 02:40:00,66.2,65.3,29.98,East,92,0.0,0.0,97,0.00,,,0.00,Wunderground v.1.15,2013-08-29 07:40:00,
2013-08-29 02:45:00,66.1,65.2,29.98,East,92,0.0,0.0,97,0.00,,,0.00,Wunderground v.1.15,2013-08-29 07:45:00,
2013-08-29 02:50:00,66.1,65.2,29.98,East,92,0.0,5.0,97,0.00,,,0.00,Wunderground v.1.15,2013-08-29 07:50:00,
2013-08-29 02:55:00,66.1,65.2,29.98,East,92,0.0,5.0,97,0.00,,,0.00,Wunderground v.1.15,2013-08-29 07:55:00,
2013-08-29 03:00:00,66.1,65.2,29.98,East,92,0.0,0.0,97,0.00,,,0.00,Wunderground v.1.15,2013-08-29 08:00:00,
2013-08-29 03:05:00,66.0,65.1,29.98,East,92,0.0,0.0,97,0.00,,,0.00,Wunderground v.1.15,2013-08-29 08:05:00,
2013-08-29 03:10:00,65.9,65.0,29.98,East,92,0.0,0.0,97,0.00,,,0.00,Wunderground v.1.15,2013-08-29 08:10:00,
2013-08-29 03:15:00,65.9,65.0,29.98,East,92,0.0,0.0,97,0.00,,,0.00,Wunderground v.1.15,2013-08-29 08:15:00,
2013-08-29 03:20:00,65.8,64.9,29.98,East,92,0.0,0.0,97,0.00,,,0.00,Wunderground v.1.15,2013-08-29 08:20:00,
2013-08-29 03:25:00,65.7,64.8,29.98,East,92,0.0,0.0,97,0.00,,,0.00,Wunderground v.1.15,2013-08-29 08:25:00,
2013-08-29 03:30:00,65.7,64.8,29.97,East,92,0.0,0.0,97,0.00,,,0.00,Wunderground v.1.15,2013-08-29 08:30:00,
2013-08-29 03:35:00,65.6,64.7,29.98,East,92,0.0,0.0,97,0.00,,,0.00,Wunderground v.1.15,2013-08-29 08:35:00,
2013-08-29 03:40:00,65.5,64.6,29.98,East,92,0.0,0.0,97,0.00,,,0.00,Wunderground v.1.15,2013-08-29 08:40:00,
2013-08-29 03:45:00,65.4,64.5,29.98,East,92,0.0,0.0,97,0.00,,,0.00,Wunderground v.1.15,2013-08-29 08:45:00,
2013-08-29 03:50:00,65.4,64.5,29.98,East,92,0.0,1.0,97,0.00,,,0.00,Wunderground v.1.15,2013-08-29 08:50:00,
2013-08-29 03:55:00,65.3,64.4,29.98,East,92,0.0,1.0,97,0.00,,,0.00,Wunderground v.1.15,2013-08-29 08:55:00,
2013-08-29 04:00:00,65.2,64.3,29.98,East,92,0.0,0.0,97,0.00,,,0.00,Wunderground v.1.15,2013-08-29 09:00:00,
2013-08-29 04:05:00,65.2,64.6,29.98,East,92,0.0,0.0,98,0.00,,,0.00,Wunderground v.1.15,2013-08-29 09:05:00,
2013-08-29 04:10:00,65.2,64.3,29.98,East,92,0.0,0.0,97,0.00,,,0.00,Wunderground v.1.15,2013-08-29 09:10:00,
2013-08-29 04:15:00,65.2,64.6,29.98,East,92,0.0,0.0,98,0.00,,,0.00,Wunderground v.1.15,2013-08-29 09:15:00,
2013-08-29 04:25:00,65.3,64.7,29.98,East,92,0.0,0.0,98,0.00,,,0.00,Wunderground v.1.15,2013-08-29 09:25:00,
2013-08-29 04:30:00,65.3,64.7,29.98,East,92,0.0,0.0,98,0.00,,,0.00,Wunderground v.1.15,2013-08-29 09:30:00,
2013-08-29 04:35:00,65.3,64.7,29.98,East,92,0.0,0.0,98,0.00,,,0.00,Wunderground v.1.15,2013-08-29 09:35:00,
2013-08-29 04:40:00,65.3,64.7,29.98,East,92,0.0,0.0,98,0.00,,,0.00,Wunderground v.1.15,2013-08-29 09:40:00,
2013-08-29 04:45:00,65.4,64.8,29.99,East,92,0.0,0.0,98,0.00,,,0.00,Wunderground v.1.15,2013-08-29 09:45:00,
2013-08-29 04:50:00,65.4,64.8,29.99,East,92,0.0,0.0,98,0.00,,,0.00,Wunderground v.1.15,2013-08-29 09:50:00,
2013-08-29 04:55:00,65.5,64.9,29.99,East,92,0.0,0.0,98,0.00,,,0.00,Wunderground v.1.15,2013-08-29 09:55:00,
2013-08-29 05:00:00,65.5,64.9,29.98,East,92,0.0,0.0,98,0.00,,,0.00,Wunderground v.1.15,2013-08-29 10:00:00,
2013-08-29 05:10:00,65.5,64.9,29.99,East,92,0.0,0.0,98,0.00,,,0.00,Wunderground v.1.15,2013-08-29 10:10:00,
2013-08-29 05:15:00,65.4,64.8,29.98,ESE,123,0.0,0.0,98,0.00,,,0.00,Wunderground v.1.15,2013-08-29 10:15:00,
2013-08-29 05:20:00,65.3,64.7,29.98,SE,124,0.0,0.0,98,0.00,,,0.00,Wunderground v.1.15,2013-08-29 10:20:00,
2013-08-29 05:25:00,65.2,64.6,29.99,SE,124,0.0,0.0,98,0.00,,,0.00,Wunderground v.1.15,2013-08-29 10:25:00,
2013-08-29 05:30:00,65.2,64.6,29.99,SE,124,0.0,0.0,98,0.00,,,0.00,Wunderground v.1.15,2013-08-29 10:30:00,
2013-08-29 05:35:00,65.2,64.6,29.99,SE,124,0.0,0.0,98,0.00,,,0.00,Wunderground v.1.15,2013-08-29 10:35:00,
2013-08-29 05:40:00,65.3,64.7,29.99,SE,124,0.0,0.0,98,0.00,,,0.00,Wunderground v.1.15,2013-08-29 10:40:00,
2013-08-29 05:45:00,65.4,64.8,29.99,SE,124,0.0,0.0,98,0.00,,,0.00,Wunderground v.1.15,2013-08-29 10:45:00,
2013-08-29 05:55:00,65.5,64.9,29.99,SE,124,0.0,1.0,98,0.00,,,0.00,Wunderground v.1.15,2013-08-29 10:55:00,
2013-08-29 06:00:00,65.5,64.9,29.99,SE,124,0.0,0.0,98,0.00,,,0.00,Wunderground v.1.15,2013-08-29 11:00:00,
2013-08-29 06:05:00,65.5,64.9,29.99,SE,124,0.0,0.0,98,0.00,,,0.00,Wunderground v.1.15,2013-08-29 11:05:00,
2013-08-29 06:10:00,65.5,64.9,30.00,SE,124,1.0,1.0,98,0.00,,,0.00,Wunderground v.1.15,2013-08-29 11:10:00,
2013-08-29 06:15:00,65.5,64.9,30.00,SE,124,0.0,1.0,98,0.00,,,0.00,Wunderground v.1.15,2013-08-29 11:15:00,
2013-08-29 06:20:00,65.4,64.8,30.00,SE,124,0.0,0.0,98,0.00,,,0.00,Wunderground v.1.15,2013-08-29 11:20:00,
2013-08-29 06:25:00,65.4,64.8,30.00,SE,124,0.0,0.0,98,0.00,,,0.00,Wunderground v.1.15,2013-08-29 11:25:00,
2013-08-29 06:30:00,65.4,64.8,30.01,SE,124,0.0,0.0,98,0.00,,,0.00,Wunderground v.1.15,2013-08-29 11:30:00,
2013-08-29 06:40:00,65.4,64.8,30.01,SE,124,0.0,1.0,98,0.00,,,0.00,Wunderground v.1.15,2013-08-29 11:40:00,
2013-08-29 06:45:00,65.5,64.9,30.01,SE,124,0.0,1.0,98,0.00,,,0.00,Wunderground v.1.15,2013-08-29 11:45:00,
2013-08-29 06:50:00,65.5,64.9,30.00,SE,124,0.0,1.0,98,0.00,,,0.00,Wunderground v.1.15,2013-08-29 11:50:00,
2013-08-29 07:00:00,65.4,64.8,30.00,SE,124,0.0,0.0,98,0.00,,,0.00,Wunderground v.1.15,2013-08-29 12:00:00,
2013-08-29 07:05:00,65.5,64.9,30.01,SE,124,0.0,0.0,98,0.00,,,0.00,Wunderground v.1.15,2013-08-29 12:05:00,
2013-08-29 07:10:00,65.5,64.9,30.01,SE,124,0.0,0.0,98,0.00,,,0.00,Wunderground v.1.15,2013-08-29 12:10:00,
2013-08-29 07:15:00,65.5,64.9,30.01,SE,124,0.0,0.0,98,0.00,,,0.00,Wunderground v.1.15,2013-08-29 12:15:00,
2013-08-29 07:20:00,65.6,65.0,30.01,SE,124,0.0,0.0,98,0.00,,,0.00,Wunderground v.1.15,2013-08-29 12:20:00,
2013-08-29 07:25:00,65.7,65.1,30.01,SE,124,0.0,1.0,98,0.00,,,0.00,Wunderground v.1.15,2013-08-29 12:25:00,
2013-08-29 07:30:00,65.8,65.2,30.01,SE,124,0.0,1.0,98,0.00,,,0.00,Wunderground v.1.15,2013-08-29 12:30:00,
2013-08-29 07:35:00,65.9,65.3,30.01,SW,215,0.0,1.0,98,0.00,,,0.00,Wunderground v.1.15,2013-08-29 12:35:00,
2013-08-29 07:40:00,66.2,65.9,30.01,SW,236,0.0,0.0,99,0.00,,,0.00,Wunderground v.1.15,2013-08-29 12:40:00,
2013-08-29 07:45:00,66.4,66.1,30.01,WSW,241,1.0,1.0,99,0.00,,,0.00,Wunderground v.1.15,2013-08-29 12:45:00,
2013-08-29 07:50:00,66.6,66.3,30.02,SSW,197,1.0,1.0,99,0.00,,,0.00,Wunderground v.1.15,2013-08-29 12:50:00,
2013-08-29 07:55:00,66.8,66.5,30.02,SSW,197,1.0,2.0,99,0.00,,,0.00,Wunderground v.1.15,2013-08-29 12:55:00,
2013-08-29 08:00:00,67.2,66.9,30.02,SSW,197,0.0,0.0,99,0.00,,,0.00,Wunderground v.1.15,2013-08-29 13:00:00,
2013-08-29 08:10:00,67.5,67.2,30.02,WSW,240,1.0,1.0,99,0.00,,,0.00,Wunderground v.1.15,2013-08-29 13:10:00,
2013-08-29 08:15:00,67.6,67.3,30.02,WSW,240,1.0,1.0,99,0.00,,,0.00,Wunderground v.1.15,2013-08-29 13:15:00,
2013-08-29 08:20:00,67.9,67.6,30.02,WSW,240,0.0,0.0,99,0.00,,,0.00,Wunderground v.1.15,2013-08-29 13:20:00,
2013-08-29 08:25:00,68.2,67.9,30.03,SW,228,0.0,0.0,99,0.00,,,0.00,Wunderground v.1.15,2013-08-29 13:25:00,
2013-08-29 08:30:00,68.3,68.0,30.03,SW,217,0.0,0.0,99,0.00,,,0.00,Wunderground v.1.15,2013-08-29 13:30:00,
2013-08-29 08:35:00,68.4,68.1,30.03,SW,215,0.0,0.0,99,0.00,,,0.00,Wunderground v.1.15,2013-08-29 13:35:00,
2013-08-29 08:45:00,68.4,68.1,30.03,SW,214,0.0,0.0,99,0.00,,,0.00,Wunderground v.1.15,2013-08-29 13:45:00,
2013-08-29 08:50:00,68.7,68.4,30.03,SSW,203,0.0,3.0,99,0.00,,,0.00,Wunderground v.1.15,2013-08-29 13:50:00,
2013-08-29 08:55:00,68.9,68.6,30.03,SSW,200,1.0,3.0,99,0.00,,,0.00,Wunderground v.1.15,2013-08-29 13:55:00,
2013-08-29 09:05:00,69.4,69.1,30.03,SW,223,1.0,1.0,99,0.00,,,0.00,Wunderground v.1.15,2013-08-29 14:05:00,
2013-08-29 09:10:00,69.5,69.2,30.03,SSW,207,1.0,1.0,99,0.00,,,0.00,Wunderground v.1.15,2013-08-29 14:10:00,
2013-08-29 09:15:00,69.5,69.2,30.03,SSE,164,1.0,1.0,99,0.00,,,0.00,Wunderground v.1.15,2013-08-29 14:15:00,
2013-08-29 09:20:00,69.5,68.9,30.03,SSE,154,1.0,1.0,98,0.00,,,0.00,Wunderground v.1.15,2013-08-29 14:20:00,
2013-08-29 09:25:00,69.8,69.2,30.03,SSE,163,1.0,2.0,98,0.00,,,0.00,Wunderground v.1.15,2013-08-29 14:25:00,
2013-08-29 09:30:00,69.9,69.6,30.03,SSE,159,1.0,1.0,99,0.00,,,0.00,Wunderground v.1.15,2013-08-29 14:30:00,
2013-08-29 09:35:00,70.1,69.8,30.03,SSE,159,1.0,1.0,99,0.00,,,0.00,Wunderground v.1.15,2013-08-29 14:35:00,
2013-08-29 09:45:00,70.7,70.1,30.03,SSW,198,1.0,1.0,98,0.00,,,0.00,Wunderground v.1.15,2013-08-29 14:45:00,
2013-08-29 09:50:00,71.0,70.4,30.03,South,182,1.0,1.0,98,0.00,,,0.00,Wunderground v.1.15,2013-08-29 14:50:00,
2013-08-29 09:55:00,70.9,70.0,30.04,SW,222,1.0,2.0,97,0.00,,,0.00,Wunderground v.1.15,2013-08-29 14:55:00,
2013-08-29 10:00:00,71.0,70.1,30.04,SSW,205,1.0,1.0,97,0.00,,,0.00,Wunderground v.1.15,2013-08-29 15:00:00,
2013-08-29 10:10:00,71.7,70.8,30.04,SSE,161,1.0,5.0,97,0.00,,,0.00,Wunderground v.1.15,2013-08-29 15:10:00,
2013-08-29 10:15:00,72.1,70.6,30.04,SSE,159,1.0,5.0,95,0.00,,,0.00,Wunderground v.1.15,2013-08-29 15:15:00,
2013-08-29 10:20:00,72.5,71.0,30.04,South,174,1.0,1.0,95,0.00,,,0.00,Wunderground v.1.15,2013-08-29 15:20:00,
2013-08-29 10:25:00,73.3,71.2,30.04,East,80,1.0,2.0,93,0.00,,,0.00,Wunderground v.1.15,2013-08-29 15:25:00,
2013-08-29 10:30:00,74.4,71.6,30.04,SSE,167,2.0,3.0,91,0.00,,,0.00,Wunderground v.1.15,2013-08-29 15:30:00,
2013-08-29 10:35:00,74.7,71.2,30.04,South,186,2.0,3.0,89,0.00,,,0.00,Wunderground v.1.15,2013-08-29 15:35:00,
2013-08-29 10:40:00,74.8,71.3,30.04,SSE,163,1.0,2.0,89,0.00,,,0.00,Wunderground v.1.15,2013-08-29 15:40:00,
2013-08-29 10:45:00,75.0,71.5,30.04,SSE,161,1.0,2.0,89,0.00,,,0.00,Wunderground v.1.15,2013-08-29 15:45:00,
2013-08-29 10:50:00,75.1,71.3,30.04,South,188,2.0,3.0,88,0.00,,,0.00,Wunderground v.1.15,2013-08-29 15:50:00,
2013-08-29 10:55:00,75.3,71.8,30.04,SSW,197,2.0,3.0,89,0.00,,,0.00,Wunderground v.1.15,2013-08-29 15:55:00,
2013-08-29 11:00:00,75.7,71.9,30.04,SW,221,2.0,2.0,88,0.00,,,0.00,Wunderground v.1.15,2013-08-29 16:00:00,
2013-08-29 11:05:00,76.2,71.7,30.04,SSE,153,2.0,2.0,86,0.00,,,0.00,Wunderground v.1.15,2013-08-29 16:05:00,
2013-08-29 11:10:00,77.4,72.9,30.04,SW,219,2.0,2.0,86,0.00,,,0.00,Wunderground v.1.15,2013-08-29 16:10:00,
2013-08-29 11:15:00,78.5,72.9,30.03,SSW,198,2.0,5.0,83,0.00,,,0.00,Wunderground v.1.15,2013-08-29 16:15:00,
2013-08-29 11:20:00,79.2,73.2,30.03,SW,214,2.0,2.0,82,0.00,,,0.00,Wunderground v.1.15,2013-08-29 16:20:00,
2013-08-29 11:25:00,79.7,72.2,30.03,SSW,194,2.0,2.0,78,0.00,,,0.00,Wunderground v.1.15,2013-08-29 16:25:00,
2013-08-29 11:30:00,80.0,72.5,30.03,WSW,238,2.0,3.0,78,0.00,,,0.00,Wunderground v.1.15,2013-08-29 16:30:00,
2013-08-29 11:40:00,80.8,72.9,30.03,East,94,2.0,2.0,77,0.00,,,0.00,Wunderground v.1.15,2013-08-29 16:40:00,
2013-08-29 11:45:00,81.2,72.1,30.03,ESE,123,1.0,2.0,74,0.00,,,0.00,Wunderground v.1.15,2013-08-29 16:45:00,
2013-08-29 11:50:00,81.6,72.5,30.03,WSW,238,2.0,3.0,74,0.00,,,0.00,Wunderground v.1.15,2013-08-29 16:50:00,
2013-08-29 12:00:00,82.4,72.0,30.03,ESE,119,2.0,4.0,71,0.00,,,0.00,Wunderground v.1.15,2013-08-29 17:00:00,
2013-08-29 12:10:00,83.2,72.0,30.02,East,94,2.0,6.0,69,0.00,,,0.00,Wunderground v.1.15,2013-08-29 17:10:00,
2013-08-29 12:15:00,83.7,72.0,30.02,SSE,163,2.0,6.0,68,0.00,,,0.00,Wunderground v.1.15,2013-08-29 17:15:00,
2013-08-29 12:20:00,84.2,71.6,30.02,South,178,2.0,4.0,66,0.00,,,0.00,Wunderground v.1.15,2013-08-29 17:20:00,
2013-08-29 12:25:00,84.2,71.6,30.02,South,173,2.0,4.0,66,0.00,,,0.00,Wunderground v.1.15,2013-08-29 17:25:00,
2013-08-29 12:30:00,84.2,72.0,30.02,SE,130,3.0,3.0,67,0.00,,,0.00,Wunderground v.1.15,2013-08-29 17:30:00,
2013-08-29 12:35:00,84.5,71.9,30.02,South,190,2.0,3.0,66,0.00,,,0.00,Wunderground v.1.15,2013-08-29 17:35:00,
2013-08-29 12:40:00,84.7,71.6,30.02,South,173,2.0,2.0,65,0.00,,,0.00,Wunderground v.1.15,2013-08-29 17:40:00,
2013-08-29 12:45:00,84.8,71.7,30.02,East,94,3.0,3.0,65,0.00,,,0.00,Wunderground v.1.15,2013-08-29 17:45:00,
2013-08-29 12:50:00,85.2,71.2,30.02,SW,217,3.0,3.0,63,0.00,,,0.00,Wunderground v.1.15,2013-08-29 17:50:00,
2013-08-29 12:55:00,85.1,71.5,30.01,SW,231,2.0,5.0,64,0.00,,,0.00,Wunderground v.1.15,2013-08-29 17:55:00,
2013-08-29 13:00:00,85.5,70.5,30.01,SE,127,2.0,5.0,61,0.00,,,0.00,Wunderground v.1.15,2013-08-29 18:00:00,
2013-08-29 13:05:00,85.8,71.3,30.01,SSE,162,2.0,5.0,62,0.00,,,0.00,Wunderground v.1.15,2013-08-29 18:05:00,
2013-08-29 13:15:00,85.9,70.4,30.01,South,180,2.0,5.0,60,0.00,,,0.00,Wunderground v.1.15,2013-08-29 18:15:00,
2013-08-29 13:20:00,86.1,70.1,30.00,South,186,2.0,4.0,59,0.00,,,0.00,Wunderground v.1.15,2013-08-29 18:20:00,
2013-08-29 13:25:00,86.2,70.7,30.00,SE,137,2.0,4.0,60,0.00,,,0.00,Wunderground v.1.15,2013-08-29 18:25:00,
2013-08-29 13:30:00,86.8,71.2,30.00,SE,146,3.0,3.0,60,0.00,,,0.00,Wunderground v.1.15,2013-08-29 18:30:00,
2013-08-29 13:40:00,86.8,70.8,30.00,East,84,2.0,3.0,59,0.00,,,0.00,Wunderground v.1.15,2013-08-29 18:40:00,
2013-08-29 13:45:00,87.2,70.6,30.00,SW,229,3.0,3.0,58,0.00,,,0.00,Wunderground v.1.15,2013-08-29 18:45:00,
2013-08-29 13:50:00,86.8,70.8,29.99,East,86,2.0,7.0,59,0.00,,,0.00,Wunderground v.1.15,2013-08-29 18:50:00,
2013-08-29 13:55:00,87.3,70.2,29.99,SSW,208,2.0,7.0,57,0.00,,,0.00,Wunderground v.1.15,2013-08-29 18:55:00,
2013-08-29 14:00:00,87.5,71.4,29.99,East,96,2.0,2.0,59,0.00,,,0.00,Wunderground v.1.15,2013-08-29 19:00:00,
2013-08-29 14:05:00,87.9,70.8,29.99,SW,231,2.0,2.0,57,0.00,,,0.00,Wunderground v.1.15,2013-08-29 19:05:00,
2013-08-29 14:10:00,88.1,70.4,29.99,WSW,254,2.0,4.0,56,0.00,,,0.00,Wunderground v.1.15,2013-08-29 19:10:00,
2013-08-29 14:20:00,88.4,70.2,29.98,West,261,3.0,3.0,55,0.00,,,0.00,Wunderground v.1.15,2013-08-29 19:20:00,
2013-08-29 14:25:00,88.3,70.1,29.98,South,182,2.0,3.0,55,0.00,,,0.00,Wunderground v.1.15,2013-08-29 19:25:00,
2013-08-29 14:30:00,88.4,70.7,29.98,WSW,237,2.0,2.0,56,0.00,,,0.00,Wunderground v.1.15,2013-08-29 19:30:00,
2013-08-29 14:35:00,88.6,70.9,29.98,SW,217,3.0,3.0,56,0.00,,,0.00,Wunderground v.1.15,2013-08-29 19:35:00,
2013-08-29 14:40:00,88.8,70.5,29.98,SW,223,2.0,3.0,55,0.00,,,0.00,Wunderground v.1.15,2013-08-29 19:40:00,
2013-08-29 14:45:00,88.9,71.2,29.97,NW,325,1.0,3.0,56,0.00,,,0.00,Wunderground v.1.15,2013-08-29 19:45:00,
2013-08-29 14:50:00,89.2,70.4,29.98,SSE,150,1.0,9.0,54,0.00,,,0.00,Wunderground v.1.15,2013-08-29 19:50:00,
2013-08-29 14:55:00,89.1,70.3,29.97,East,92,2.0,9.0,54,0.00,,,0.00,Wunderground v.1.15,2013-08-29 19:55:00,
2013-08-29 15:00:00,89.0,70.2,29.97,SSW,211,3.0,3.0,54,0.00,,,0.00,Wunderground v.1.15,2013-08-29 20:00:00,
2013-08-29 15:05:00,88.6,69.8,29.97,SSE,150,3.0,3.0,54,0.00,,,0.00,Wunderground v.1.15,2013-08-29 20:05:00,
2013-08-29 15:10:00,88.5,69.7,29.97,SSW,200,2.0,5.0,54,0.00,,,0.00,Wunderground v.1.15,2013-08-29 20:10:00,
2013-08-29 15:15:00,88.2,70.5,29.97,SSE,156,3.0,5.0,56,0.00,,,0.00,Wunderground v.1.15,2013-08-29 20:15:00,
2013-08-29 15:20:00,88.1,70.4,29.97,WSW,246,2.0,4.0,56,0.00,,,0.00,Wunderground v.1.15,2013-08-29 20:20:00,
2013-08-29 15:25:00,87.7,70.6,29.96,SW,231,2.0,4.0,57,0.00,,,0.00,Wunderground v.1.15,2013-08-29 20:25:00,
2013-08-29 15:30:00,87.5,69.9,29.96,ESE,111,2.0,2.0,56,0.00,,,0.00,Wunderground v.1.15,2013-08-29 20:30:00,
2013-08-29 15:35:00,87.6,71.0,29.96,East,96,1.0,5.0,58,0.00,,,0.00,Wunderground v.1.15,2013-08-29 20:35:00,
2013-08-29 15:45:00,87.7,70.1,29.96,SE,141,2.0,2.0,56,0.00,,,0.00,Wunderground v.1.15,2013-08-29 20:45:00,
2013-08-29 15:50:00,87.3,70.2,29.96,SSE,161,2.0,2.0,57,0.00,,,0.00,Wunderground v.1.15,2013-08-29 20:50:00,
2013-08-29 15:55:00,87.1,71.0,29.96,SW,236,2.0,7.0,59,0.00,,,0.00,Wunderground v.1.15,2013-08-29 20:55:00,
2013-08-29 16:00:00,87.0,70.4,29.96,SW,233,2.0,2.0,58,0.00,,,0.00,Wunderground v.1.15,2013-08-29 21:00:00,
2013-08-29 16:10:00,87.2,71.6,29.95,ESE,119,1.0,2.0,60,0.00,,,0.00,Wunderground v.1.15,2013-08-29 21:10:00,
2013-08-29 16:15:00,87.3,70.2,29.95,ESE,112,2.0,3.0,57,0.00,,,0.00,Wunderground v.1.15,2013-08-29 21:15:00,
2013-08-29 16:25:00,87.2,70.6,29.95,South,181,1.0,4.0,58,0.00,,,0.00,Wunderground v.1.15,2013-08-29 21:25:00,
2013-08-29 16:30:00,87.2,71.1,29.95,SSE,165,2.0,2.0,59,0.00,,,0.00,Wunderground v.1.15,2013-08-29 21:30:00,
2013-08-29 16:35:00,87.2,71.1,29.95,SSW,210,2.0,2.0,59,0.00,,,0.00,Wunderground v.1.15,2013-08-29 21:35:00,
2013-08-29 16:40:00,87.2,71.1,29.95,SSW,213,2.0,2.0,59,0.00,,,0.00,Wunderground v.1.15,2013-08-29 21:40:00,
2013-08-29 16:45:00,87.1,70.5,29.95,SSE,157,2.0,2.0,58,0.00,,,0.00,Wunderground v.1.15,2013-08-29 21:45:00,
2013-08-29 16:50:00,87.0,70.9,29.95,West,265,2.0,7.0,59,0.00,,,0.00,Wunderground v.1.15,2013-08-29 21:50:00,
2013-08-29 16:55:00,86.9,70.8,29.95,SSE,163,2.0,7.0,59,0.00,,,0.00,Wunderground v.1.15,2013-08-29 21:55:00,
2013-08-29 17:00:00,86.8,70.8,29.95,South,169,2.0,2.0,59,0.00,,,0.00,Wunderground v.1.15,2013-08-29 22:00:00,
2013-08-29 17:05:00,86.7,70.7,29.95,South,184,1.0,2.0,59,0.00,,,0.00,Wunderground v.1.15,2013-08-29 22:05:00,
2013-08-29 17:10:00,86.5,71.9,29.94,South,189,1.0,4.0,62,0.00,,,0.00,Wunderground v.1.15,2013-08-29 22:10:00,
2013-08-29 17:15:00,86.4,70.4,29.94,South,184,2.0,4.0,59,0.00,,,0.00,Wunderground v.1.15,2013-08-29 22:15:00,
2013-08-29 17:20:00,86.4,71.4,29.94,SW,214,2.0,2.0,61,0.00,,,0.00,Wunderground v.1.15,2013-08-29 22:20:00,
2013-08-29 17:25:00,86.3,71.7,29.94,SSW,212,2.0,2.0,62,0.00,,,0.00,Wunderground v.1.15,2013-08-29 22:25:00,
2013-08-29 17:30:00,86.2,71.2,29.94,West,275,2.0,2.0,61,0.00,,,0.00,Wunderground v.1.15,2013-08-29 22:30:00,
2013-08-29 17:35:00,86.2,70.7,29.94,WSW,249,1.0,2.0,60,0.00,,,0.00,Wunderground v.1.15,2013-08-29 22:35:00,
2013-08-29 17:40:00,86.2,71.2,29.94,SSW,202,1.0,1.0,61,0.00,,,0.00,Wunderground v.1.15,2013-08-29 22:40:00,
2013-08-29 17:45:00,86.1,71.1,29.94,SSW,198,1.0,3.0,61,0.00,,,0.00,Wunderground v.1.15,2013-08-29 22:45:00,
2013-08-29 17:50:00,85.9,70.9,29.94,South,179,2.0,2.0,61,0.00,,,0.00,Wunderground v.1.15,2013-08-29 22:50:00,
2013-08-29 17:55:00,85.7,70.7,29.93,South,179,2.0,7.0,61,0.00,,,0.00,Wunderground v.1.15,2013-08-29 22:55:00,
2013-08-29 18:00:00,85.7,71.2,29.93,SSW,201,1.0,1.0,62,0.00,,,0.00,Wunderground v.1.15,2013-08-29 23:00:00,
2013-08-29 18:05:00,85.6,70.6,29.93,SSE,157,1.0,1.0,61,0.00,,,0.00,Wunderground v.1.15,2013-08-29 23:05:00,
2013-08-29 18:10:00,85.4,70.4,29.93,SW,223,2.0,3.0,61,0.00,,,0.00,Wunderground v.1.15,2013-08-29 23:10:00,
2013-08-29 18:15:00,85.2,70.7,29.94,SW,214,2.0,3.0,62,0.00,,,0.00,Wunderground v.1.15,2013-08-29 23:15:00,
2013-08-29 18:20:00,85.0,71.0,29.93,SSW,207,2.0,2.0,63,0.00,,,0.00,Wunderground v.1.15,2013-08-29 23:20:00,
2013-08-29 18:25:00,84.8,71.3,29.94,WSW,242,1.0,2.0,64,0.00,,,0.00,Wunderground v.1.15,2013-08-29 23:25:00,
2013-08-29 18:35:00,84.5,71.0,29.94,SW,232,1.0,1.0,64,0.00,,,0.00,Wunderground v.1.15,2013-08-29 23:35:00,
2013-08-29 18:40:00,84.2,71.2,29.93,SW,221,1.0,2.0,65,0.00,,,0.00,Wunderground v.1.15,2013-08-29 23:40:00,
2013-08-29 18:45:00,83.9,71.3,29.93,SW,234,1.0,2.0,66,0.00,,,0.00,Wunderground v.1.15,2013-08-29 23:45:00,
2013-08-29 18:50:00,83.7,71.6,29.93,SW,215,1.0,1.0,67,0.00,,,0.00,Wunderground v.1.15,2013-08-29 23:50:00,
2013-08-29 18:55:00,83.6,71.5,29.93,SW,228,1.0,3.0,67,0.00,,,0.00,Wunderground v.1.15,2013-08-29 23:55:00,
2013-08-29 19:00:00,83.2,71.1,29.93,WSW,242,1.0,1.0,67,0.00,,,0.00,Wunderground v.1.15,2013-08-30 00:00:00,
2013-08-29 19:05:00,83.0,71.3,29.93,SW,223,1.0,1.0,68,0.00,,,0.00,Wunderground v.1.15,2013-08-30 00:05:00,
2013-08-29 19:15:00,82.3,71.1,29.93,SW,230,1.0,1.0,69,0.00,,,0.00,Wunderground v.1.15,2013-08-30 00:15:00,
2013-08-29 19:20:00,82.0,71.2,29.92,SW,231,1.0,1.0,70,0.00,,,0.00,Wunderground v.1.15,2013-08-30 00:20:00,
2013-08-29 19:25:00,81.7,71.4,29.92,SW,227,1.0,1.0,71,0.00,,,0.00,Wunderground v.1.15,2013-08-30 00:25:00,
2013-08-29 19:30:00,81.3,71.4,29.92,SW,225,1.0,2.0,72,0.00,,,0.00,Wunderground v.1.15,2013-08-30 00:30:00,
2013-08-29 19:40:00,80.6,71.1,29.92,WSW,242,1.0,3.0,73,0.00,,,0.00,Wunderground v.1.15,2013-08-30 00:40:00,
2013-08-29 19:45:00,80.2,71.2,29.92,WSW,238,1.0,3.0,74,0.00,,,0.00,Wunderground v.1.15,2013-08-30 00:45:00,
2013-08-29 19:50:00,80.0,71.0,29.92,WSW,239,0.0,4.0,74,0.00,,,0.00,Wunderground v.1.15,2013-08-30 00:50:00,
2013-08-29 19:55:00,79.7,71.1,29.92,WSW,239,0.0,4.0,75,0.00,,,0.00,Wunderground v.1.15,2013-08-30 00:55:00,
2013-08-29 20:00:00,79.4,71.2,29.92,WSW,239,0.0,0.0,76,0.00,,,0.00,Wunderground v.1.15,2013-08-30 01:00:00,
2013-08-29 20:05:00,79.1,70.9,29.92,WSW,239,0.0,0.0,76,0.00,,,0.00,Wunderground v.1.15,2013-08-30 01:05:00,
2013-08-29 20:10:00,78.9,71.1,29.93,WSW,239,0.0,0.0,77,0.00,,,0.00,Wunderground v.1.15,2013-08-30 01:10:00,
2013-08-29 20:15:00,78.6,70.8,29.93,WSW,239,0.0,0.0,77,0.00,,,0.00,Wunderground v.1.15,2013-08-30 01:15:00,
2013-08-29 20:20:00,78.3,70.9,29.93,WSW,239,0.0,0.0,78,0.00,,,0.00,Wunderground v.1.15,2013-08-30 01:20:00,
2013-08-29 20:25:00,78.0,71.0,29.93,WSW,239,0.0,0.0,79,0.00,,,0.00,Wunderground v.1.15,2013-08-30 01:25:00,
2013-08-29 20:30:00,77.7,70.7,29.93,WSW,239,0.0,0.0,79,0.00,,,0.00,Wunderground v.1.15,2013-08-30 01:30:00,
2013-08-29 20:35:00,77.4,70.7,29.93,WSW,239,0.0,0.0,80,0.00,,,0.00,Wunderground v.1.15,2013-08-30 01:35:00,
2013-08-29 20:40:00,77.2,70.5,29.93,WSW,239,0.0,0.0,80,0.00,,,0.00,Wunderground v.1.15,2013-08-30 01:40:00,
2013-08-29 20:45:00,76.9,70.6,29.93,WSW,239,0.0,1.0,81,0.00,,,0.00,Wunderground v.1.15,2013-08-30 01:45:00,
2013-08-29 20:50:00,76.7,70.8,29.93,SW,232,0.0,3.0,82,0.00,,,0.00,Wunderground v.1.15,2013-08-30 01:50:00,
2013-08-29 20:55:00,76.4,70.9,29.93,SSE,167,1.0,3.0,83,0.00,,,0.00,Wunderground v.1.15,2013-08-30 01:55:00,
2013-08-29 21:00:00,76.2,70.7,29.93,SSE,167,0.0,0.0,83,0.00,,,0.00,Wunderground v.1.15,2013-08-30 02:00:00,
2013-08-29 21:05:00,76.0,70.8,29.93,SSE,167,0.0,0.0,84,0.00,,,0.00,Wunderground v.1.15,2013-08-30 02:05:00,
2013-08-29 21:10:00,75.8,70.6,29.93,SSE,167,0.0,0.0,84,0.00,,,0.00,Wunderground v.1.15,2013-08-30 02:10:00,
2013-08-29 21:15:00,75.6,70.8,29.93,SSE,161,0.0,1.0,85,0.00,,,0.00,Wunderground v.1.15,2013-08-30 02:15:00,
2013-08-29 21:20:00,75.5,70.7,29.93,East,82,1.0,1.0,85,0.00,,,0.00,Wunderground v.1.15,2013-08-30 02:20:00,
2013-08-29 21:25:00,75.3,70.5,29.93,East,86,1.0,1.0,85,0.00,,,0.00,Wunderground v.1.15,2013-08-30 02:25:00,
2013-08-29 21:30:00,75.1,70.3,29.94,East,86,0.0,0.0,85,0.00,,,0.00,Wunderground v.1.15,2013-08-30 02:30:00,
2013-08-29 21:35:00,74.9,70.4,29.93,East,86,0.0,0.0,86,0.00,,,0.00,Wunderground v.1.15,2013-08-30 02:35:00,
2013-08-29 21:40:00,74.7,70.2,29.93,East,86,0.0,0.0,86,0.00,,,0.00,Wunderground v.1.15,2013-08-30 02:40:00,
2013-08-29 21:45:00,74.6,70.5,29.93,East,86,0.0,0.0,87,0.00,,,0.00,Wunderground v.1.15,2013-08-30 02:45:00,
2013-08-29 21:50:00,74.6,70.5,29.93,East,86,0.0,1.0,87,0.00,,,0.00,Wunderground v.1.15,2013-08-30 02:50:00,
2013-08-29 21:55:00,74.6,70.5,29.93,East,101,0.0,1.0,87,0.00,,,0.00,Wunderground v.1.15,2013-08-30 02:55:00,
2013-08-29 22:00:00,74.4,70.3,29.93,East,101,0.0,0.0,87,0.00,,,0.00,Wunderground v.1.15,2013-08-30 03:00:00,
2013-08-29 22:05:00,74.4,70.3,29.93,ESE,107,0.0,0.0,87,0.00,,,0.00,Wunderground v.1.15,2013-08-30 03:05:00,
2013-08-29 22:10:00,74.3,70.2,29.94,ESE,107,0.0,0.0,87,0.00,,,0.00,Wunderground v.1.15,2013-08-30 03:10:00,
2013-08-29 22:15:00,74.2,70.4,29.94,ESE,107,0.0,0.0,88,0.00,,,0.00,Wunderground v.1.15,2013-08-30 03:15:00,
2013-08-29 22:20:00,74.0,70.2,29.93,ESE,107,0.0,0.0,88,0.00,,,0.00,Wunderground v.1.15,2013-08-30 03:20:00,
2013-08-29 22:25:00,73.9,70.1,29.93,ESE,107,0.0,0.0,88,0.00,,,0.00,Wunderground v.1.15,2013-08-30 03:25:00,
2013-08-29 22:30:00,73.8,70.0,29.93,ESE,107,0.0,0.0,88,0.00,,,0.00,Wunderground v.1.15,2013-08-30 03:30:00,
2013-08-29 22:35:00,73.7,69.9,29.93,ESE,107,0.0,0.0,88,0.00,,,0.00,Wunderground v.1.15,2013-08-30 03:35:00,
2013-08-29 22:40:00,73.6,70.2,29.93,ESE,107,0.0,0.0,89,0.00,,,0.00,Wunderground v.1.15,2013-08-30 03:40:00,
2013-08-29 22:45:00,73.5,70.1,29.93,ESE,107,0.0,0.0,89,0.00,,,0.00,Wunderground v.1.15,2013-08-30 03:45:00,
2013-08-29 22:50:00,73.3,69.9,29.93,ESE,107,0.0,1.0,89,0.00,,,0.00,Wunderground v.1.15,2013-08-30 03:50:00,
2013-08-29 22:55:00,73.2,69.8,29.93,ESE,107,0.0,1.0,89,0.00,,,0.00,Wunderground v.1.15,2013-08-30 03:55:00,
2013-08-29 23:00:00,73.0,69.6,29.93,ESE,107,0.0,0.0,89,0.00,,,0.00,Wunderground v.1.15,2013-08-30 04:00:00,
2013-08-29 23:05:00,72.8,69.7,29.93,ESE,107,0.0,0.0,90,0.00,,,0.00,Wunderground v.1.15,2013-08-30 04:05:00,
2013-08-29 23:10:00,72.7,69.6,29.93,ESE,107,0.0,0.0,90,0.00,,,0.00,Wunderground v.1.15,2013-08-30 04:10:00,
2013-08-29 23:15:00,72.6,69.5,29.93,ESE,107,0.0,0.0,90,0.00,,,0.00,Wunderground v.1.15,2013-08-30 04:15:00,
2013-08-29 23:20:00,72.4,69.3,29.93,ESE,107,0.0,0.0,90,0.00,,,0.00,Wunderground v.1.15,2013-08-30 04:20:00,
2013-08-29 23:25:00,72.2,69.4,29.93,ESE,107,0.0,0.0,91,0.00,,,0.00,Wunderground v.1.15,2013-08-30 04:25:00,
2013-08-29 23:30:00,72.1,69.3,29.93,ESE,107,0.0,0.0,91,0.00,,,0.00,Wunderground v.1.15,2013-08-30 04:30:00,
2013-08-29 23:35:00,71.9,69.1,29.93,ESE,107,0.0,0.0,91,0.00,,,0.00,Wunderground v.1.15,2013-08-30 04:35:00,
2013-08-29 23:40:00,71.7,69.3,29.93,ESE,107,0.0,0.0,92,0.00,,,0.00,Wunderground v.1.15,2013-08-30 04:40:00,
2013-08-29 23:45:00,71.7,69.3,29.93,ESE,111,0.0,0.0,92,0.00,,,0.00,Wunderground v.1.15,2013-08-30 04:45:00,
2013-08-29 23:50:00,71.6,69.2,29.93,ESE,111,0.0,1.0,92,0.00,,,0.00,Wunderground v.1.15,2013-08-30 04:50:00,
2013-08-29 23:55:00,71.6,69.2,29.93,ESE,111,0.0,1.0,92,0.00,,,0.00,Wunderground v.1.15,2013-08-30 04:55:00,